Change the Weather History Date:

Wednesday, November 6, 2013

  Actual Average Record
Temperature  
Mean Temperature 52 °F -  
Max Temperature 68 °F 50 °F 75 °F (1975)
Min Temperature 35 °F 35 °F 10 °F (1991)
Degree Days  
Heating Degree Days 14    
Growing Degree Days 2 (Base 50)    
Moisture  
Dew Point 42 °F    
Average Humidity 61    
Maximum Humidity 94    
Minimum Humidity 49    
Precipitation  
Precipitation 0.09 in - - ()
Sea Level Pressure  
Sea Level Pressure 30.13 in    
Wind  
Wind Speed 7 mph (South)    
Max Wind Speed 23 mph    
Max Gust Speed 31 mph    
Visibility 10 miles    
Events      
Averages and records for this station are not official NWS values.
T = Trace of Precipitation, MM = Missing Value Source: NWS Daily Summary

Daily Weather History Graph

Daily Weather History Graph

Search for Another Location

Airport or City:

Trip Planner

Search our weather history database for the weather conditions in past years. The results will help you decide how hot, cold, wet, or windy it might be!

Date:

Astronomy

Nov. 06, 2013 Rise Set
Actual Time 6:56 AM EST 5:09 PM EST
Civil Twilight 6:27 AM EST 5:38 PM EST
Nautical Twilight 5:54 AM EST 6:11 PM EST
Astronomical Twilight 5:22 AM EST 6:43 PM EST
Moon 10:10 AM EST (11/6) 8:12 PM EST (11/6)
Length of Visible Light 11h 11m
Length of Day
10h 13m
Waxing Crescent, 13% of the Moon is Illuminated
Nov 6
Waxing Crescent
Nov 10
First Quarter
Nov 17
Full
Nov 25
Last Quarter
Dec 2
New

Hourly Weather History & Observations

Time (EST) Temp. Windchill Dew Point Humidity Pressure Visibility Wind Dir Wind Speed Gust Speed Precip Events Conditions
12:15 AM 39.2 °F 35.0 °F 24.8 °F 56% 30.34 in 10.0 mi ESE 5.8 mph - N/A   Clear
12:35 AM 42.8 °F 40.1 °F 24.8 °F 49% 30.34 in 10.0 mi ESE 4.6 mph - N/A   Clear
12:55 AM 42.8 °F 38.6 °F 24.8 °F 49% 30.33 in 10.0 mi SE 6.9 mph - N/A   Clear
1:15 AM 42.8 °F 39.3 °F 24.8 °F 49% 30.32 in 10.0 mi SE 5.8 mph - N/A   Clear
1:35 AM 42.8 °F 40.1 °F 24.8 °F 49% 30.32 in 10.0 mi SE 4.6 mph - N/A   Clear
1:55 AM 42.8 °F - 26.6 °F 53% 30.31 in 10.0 mi Calm Calm - N/A   Clear
2:15 AM 42.8 °F 39.3 °F 24.8 °F 49% 30.31 in 10.0 mi SE 5.8 mph - N/A   Clear
2:35 AM 42.8 °F 39.3 °F 26.6 °F 53% 30.30 in 10.0 mi SE 5.8 mph - N/A   Clear
2:55 AM 42.8 °F 40.1 °F 26.6 °F 53% 30.28 in 10.0 mi ESE 4.6 mph - N/A   Clear
3:15 AM 42.8 °F 40.1 °F 26.6 °F 53% 30.28 in 10.0 mi SE 4.6 mph - N/A   Clear
3:35 AM 42.8 °F 41.1 °F 26.6 °F 53% 30.28 in 10.0 mi SSE 3.5 mph - N/A   Clear
3:55 AM 42.8 °F 41.1 °F 26.6 °F 53% 30.28 in 10.0 mi ESE 3.5 mph - N/A   Clear
4:15 AM 35.6 °F - 26.6 °F 70% 30.27 in 10.0 mi Calm Calm - N/A   Clear
4:35 AM 35.6 °F 32.8 °F 26.6 °F 70% 30.27 in 10.0 mi SSE 3.5 mph - N/A   Clear
4:55 AM 41.0 °F 39.0 °F 30.2 °F 65% 30.27 in 10.0 mi SSE 3.5 mph - N/A   Clear
5:15 AM 42.8 °F 41.1 °F 30.2 °F 61% 30.27 in 10.0 mi SSE 3.5 mph - N/A   Clear
5:35 AM 42.8 °F 40.1 °F 30.2 °F 61% 30.26 in 10.0 mi SE 4.6 mph - N/A   Clear
5:55 AM 42.8 °F 41.1 °F 32.0 °F 66% 30.25 in 10.0 mi South 3.5 mph - N/A   Clear
6:15 AM 42.8 °F 39.3 °F 33.8 °F 70% 30.24 in 10.0 mi SSE 5.8 mph - N/A   Clear
6:35 AM 44.6 °F 41.4 °F 33.8 °F 66% 30.25 in 10.0 mi South 5.8 mph - N/A   Clear
6:55 AM 44.6 °F 41.4 °F 35.6 °F 71% 30.25 in 10.0 mi South 5.8 mph - N/A   Clear
7:15 AM 44.6 °F 41.4 °F 35.6 °F 71% 30.24 in 10.0 mi SSE 5.8 mph - N/A   Clear
7:35 AM 46.4 °F 45.2 °F 37.4 °F 71% 30.24 in 10.0 mi SSE 3.5 mph - N/A   Clear
7:55 AM 46.4 °F 43.5 °F 37.4 °F 71% 30.24 in 10.0 mi South 5.8 mph - N/A   Clear
8:15 AM 48.2 °F - 39.2 °F 71% 30.23 in 10.0 mi SSE 4.6 mph - N/A   Clear
8:35 AM 50.0 °F - 41.0 °F 71% 30.22 in 10.0 mi South 8.1 mph - N/A   Clear
8:55 AM 51.8 °F - 42.8 °F 71% 30.22 in 10.0 mi South 6.9 mph - N/A   Mostly Cloudy
9:15 AM 55.4 °F - 44.6 °F 67% 30.22 in 10.0 mi South 9.2 mph - N/A   Mostly Cloudy
9:35 AM 55.4 °F - 44.6 °F 67% 30.21 in 10.0 mi South 10.4 mph 17.3 mph N/A   Mostly Cloudy
9:55 AM 57.2 °F - 44.6 °F 63% 30.20 in 10.0 mi South 12.7 mph 17.3 mph N/A   Scattered Clouds
10:15 AM 59.0 °F - 44.6 °F 59% 30.19 in 10.0 mi South 6.9 mph - N/A   Mostly Cloudy
10:35 AM 60.8 °F - 46.4 °F 59% 30.19 in 10.0 mi South 6.9 mph - N/A   Partly Cloudy
10:55 AM 62.6 °F - 46.4 °F 55% 30.18 in 10.0 mi South 10.4 mph 17.3 mph N/A   Partly Cloudy
11:15 AM 62.6 °F - 46.4 °F 55% 30.17 in 10.0 mi SSE 9.2 mph - N/A   Clear
11:35 AM 64.4 °F - 46.4 °F 52% 30.17 in 10.0 mi South 10.4 mph - N/A   Scattered Clouds
11:55 AM 64.4 °F - 46.4 °F 52% 30.16 in 10.0 mi South 9.2 mph - N/A   Overcast
12:15 PM 66.2 °F - 48.2 °F 52% 30.14 in 10.0 mi SSW 10.4 mph - N/A   Overcast
12:35 PM 64.4 °F - 46.4 °F 52% 30.13 in 10.0 mi South 10.4 mph - N/A   Scattered Clouds
12:55 PM 66.2 °F - 46.4 °F 49% 30.12 in 10.0 mi SSW 10.4 mph 19.6 mph N/A   Clear
1:15 PM 66.2 °F - 48.2 °F 52% 30.09 in 10.0 mi South 8.1 mph - N/A   Clear
1:35 PM 66.2 °F - 48.2 °F 52% 30.09 in 10.0 mi South 9.2 mph 16.1 mph N/A   Clear
1:55 PM 68.0 °F - 48.2 °F 49% 30.08 in 10.0 mi South 11.5 mph 17.3 mph N/A   Partly Cloudy
2:15 PM 66.2 °F - 46.4 °F 49% 30.06 in 10.0 mi SSW 18.4 mph 23.0 mph N/A   Scattered Clouds
2:35 PM 68.0 °F - 48.2 °F 49% 30.06 in 10.0 mi SSW 10.4 mph 18.4 mph N/A   Mostly Cloudy
2:55 PM 68.0 °F - 48.2 °F 49% 30.04 in 10.0 mi South 12.7 mph 18.4 mph N/A   Mostly Cloudy
3:15 PM 66.2 °F - 46.4 °F 49% 30.05 in 10.0 mi South 9.2 mph 19.6 mph N/A   Overcast
3:35 PM 66.2 °F - 48.2 °F 52% 30.05 in 10.0 mi WSW 23.0 mph 31.1 mph N/A   Overcast
3:55 PM 66.2 °F - 48.2 °F 52% 30.03 in 10.0 mi SSW 11.5 mph 18.4 mph N/A   Overcast
4:15 PM 66.2 °F - 48.2 °F 52% 30.03 in 10.0 mi SSW 12.7 mph - N/A   Mostly Cloudy
4:35 PM 66.2 °F - 48.2 °F 52% 30.03 in 10.0 mi SSW 15.0 mph 25.3 mph N/A   Overcast
4:55 PM 66.2 °F - 48.2 °F 52% 30.02 in 10.0 mi SSW 11.5 mph 17.3 mph N/A   Overcast
5:15 PM 66.2 °F - 48.2 °F 52% 30.01 in 10.0 mi SSW 10.4 mph - N/A   Scattered Clouds
5:35 PM 64.4 °F - 48.2 °F 56% 30.00 in 10.0 mi South 9.2 mph 17.3 mph N/A   Partly Cloudy
5:55 PM 64.4 °F - 48.2 °F 56% 30.00 in 10.0 mi South 8.1 mph - N/A   Mostly Cloudy
6:15 PM 64.4 °F - 48.2 °F 56% 30.00 in 10.0 mi South 6.9 mph - N/A   Overcast
6:35 PM 64.4 °F - 48.2 °F 56% 29.99 in 10.0 mi South 6.9 mph - N/A   Overcast
6:55 PM 64.4 °F - 48.2 °F 56% 29.99 in 10.0 mi South 8.1 mph - N/A   Overcast
7:15 PM 64.4 °F - 48.2 °F 56% 29.98 in 10.0 mi SSW 12.7 mph 21.9 mph N/A   Overcast
7:35 PM 64.4 °F - 48.2 °F 56% 29.98 in 10.0 mi SSW 8.1 mph - N/A   Overcast
7:55 PM 64.4 °F - 48.2 °F 56% 29.97 in 10.0 mi SSW 8.1 mph - N/A   Overcast
8:15 PM 64.4 °F - 48.2 °F 56% 29.97 in 10.0 mi SSW 6.9 mph - N/A   Overcast
8:35 PM 64.4 °F - 48.2 °F 56% 29.96 in 10.0 mi SSW 8.1 mph - N/A   Overcast
8:55 PM 64.4 °F - 48.2 °F 56% 29.96 in 10.0 mi SW 6.9 mph - N/A   Overcast
9:15 PM 64.4 °F - 48.2 °F 56% 29.97 in 10.0 mi WSW 11.5 mph - N/A   Overcast
9:35 PM 60.8 °F - 51.8 °F 72% 29.99 in 5.0 mi West 10.4 mph 20.7 mph N/A   Overcast
9:55 PM 57.2 °F - 53.6 °F 88% 29.98 in 3.0 mi West 6.9 mph - 0.01 in   Mostly Cloudy
10:15 PM 57.2 °F - 53.6 °F 88% 29.98 in 4.0 mi WSW 11.5 mph 17.3 mph 0.03 in   Overcast
10:35 PM 57.2 °F - 53.6 °F 88% 29.96 in 8.0 mi SSW 11.5 mph 17.3 mph 0.05 in   Overcast
10:55 PM 57.2 °F - 53.6 °F 88% 29.97 in 10.0 mi SW 9.2 mph - 0.05 in   Overcast
11:15 PM 57.2 °F - 53.6 °F 88% 29.96 in 5.0 mi SSW 9.2 mph - 0.02 in   Overcast
11:35 PM 55.4 °F - 53.6 °F 94% 29.94 in 6.0 mi SSW 9.2 mph - 0.02 in   Overcast
11:55 PM 55.4 °F - 53.6 °F 94% 29.94 in 8.0 mi SSW 8.1 mph - 0.03 in   Overcast